Kuiper-00076

operational
NORAD ID: 64823 Int'l Des: 2025-151 Owner: KUIP Country: US Constellation: kuiper
LEOCIRCULAR

About Kuiper-00076

Description loading...

Live Position

Loading 3D Globe...

Upcoming Passes

Altitude History

Altitude vs Time

uPlot chart will show altitude changes over time

Two-Line Element Set

1 64823U 25151H 26063.08714299 .00007210 00000-0 96175-3 0 9995
2 64823 51.9006 317.7758 0000530 4.8601 355.2366 14.80459378 34580
Epoch: Mar 4, 2026 • Age: 10 hours

Current Status

Altitude 645.4 km
Velocity 7.54 km/s
Sub-Earth Point -51.07°S, 68.14°W
Launch Date Jul 16, 2025
Age 0.6 years
Type internet

Technical Details

Classification Payload
Mass 490.00 kg
Dry Mass 490.00 kg
Total Mass 490.00 kg
Length 1.80 m
Diameter 0.70 m
Span 5.00 m
Shape Box + 2 pan
Manufacturer KUIP
Bus Type Kuiper
Phase Status In Orbit
Owner/State KUIP/US

Large Constellations

Loading constellations...